CAPE
6 4 4 6 7 5 5 6 6 4 4 4 3 4 3 2 1 2 0 0 0 0 0 0 0 0 0 0 0 0 0 0 0 0 0 0 0 0 0 1320 2742 2734 1271 218 57 48 72 237 73 20 68 248 436 446 662 924 918 1108 1126 420 2 0 49 196 243 312 285 684 592 1064 1273 1075 1006 933 944 1068 997 1095 1064 1099 990 764 927 1230 1110 1328 1568 1850
6 6 5 4 4 6 5 5 5 4 4 4 3 4 4 2 3 1 0 0 0 1 0 0 0 0 0 0 0 0 0 0 0 0 0 138 354 1366 1715 2653 2753 2194 628 31 8 7 40 129 78 9 49 116 71 234 645 838 863 1227 335 0 2 89 73 367 452 343 522 579 691 1022 1136 1052 1052 958 1153 794 622 681 672 742 734 675 943 1100 1302 1432 1520 1816
5 5 5 5 6 4 5 4 5 4 4 4 4 5 4 2 3 1 0 0 0 1 0 0 0 0 0 0 0 0 0 0 0 0 0 80 1147 1739 2746 2544 2271 1306 0 7 1 0 0 20 62 52 54 68 166 462 558 728 813 826 330 13 0 83 380 400 450 437 642 552 768 1036 1135 1072 1024 1174 1085 788 640 634 569 645 666 863 1099 1263 1434 1490 1541 1794
4 4 4 4 5 5 5 5 5 3 4 3 4 5 3 2 2 1 1 1 1 0 0 0 0 0 0 0 0 0 0 0 0 0 0 726 1174 2422 2789 2404 1855 684 0 2 1 0 2 11 70 56 90 104 14 337 454 380 789 808 221 7 30 247 463 454 467 565 626 630 738 1058 1134 1175 1106 1336 996 649 526 557 707 856 722 986 1142 1207 1382 1556 1617 1686
5 5 4 4 4 5 5 6 5 5 2 3 4 4 2 2 1 1 1 1 2 1 0 0 0 0 0 0 0 0 0 0 0 0 56 1044 2023 2539 2816 2298 1692 0 0 0 0 0 7 22 47 43 69 24 0 46 332 263 730 0 16 0 0 320 524 569 621 700 760 790 980 1143 1198 1215 1062 786 817 644 101 405 695 912 1343 938 1008 1022 972 1198 1589 1786
5 5 5 4 4 4 5 5 6 5 4 4 4 2 2 1 1 2 1 1 1 0 1 0 0 0 0 0 0 0 0 0 0 0 1307 2191 2085 2884 3156 2265 1463 0 0 0 0 0 0 14 12 15 0 0 0 22 4 5 200 34 0 0 4 419 564 716 881 854 882 998 1062 1156 830 688 589 672 674 794 1085 1336 1566 1475 1124 1014 1087 1152 1235 1539 1980 1499
5 5 5 5 4 4 5 5 5 4 5 4 3 1 1 0 2 1 1 2 1 0 0 0 0 0 0 0 0 0 0 0 0 0 1247 2971 3251 4180 4032 2681 1378 0 0 0 0 0 0 0 0 0 0 0 0 0 0 0 0 2 82 14 309 432 692 809 926 950 998 1074 1104 777 591 250 95 449 721 1131 1464 1566 1804 1892 1888 1914 1714 1413 1317 1780 1952 1287
4 4 4 4 5 6 4 5 5 4 4 4 2 2 0 2 1 1 0 1 1 0 0 0 0 0 0 0 0 0 0 0 0 3 1524 2930 3170 3925 3585 1506 18 0 0 0 0 0 0 0 0 0 0 0 0 0 0 1 1 29 64 21 338 630 721 915 984 1064 1037 1020 870 514 500 570 598 504 555 986 1570 1604 1617 1676 1728 1670 1416 1312 1549 2025 2085 1383
5 5 5 5 5 6 6 5 4 4 4 4 4 2 1 2 1 1 1 0 0 0 0 0 0 0 0 0 0 0 0 0 0 92 1150 612 2394 1626 230 99 0 0 0 0 0 0 0 0 0 0 0 0 0 0 0 12 26 3 14 283 404 696 852 940 941 959 924 840 560 491 597 668 704 480 590 1221 1576 1558 1460 1488 1560 1539 1348 1404 1776 2014 2198 1859
5 4 5 5 4 4 6 6 4 4 4 4 6 4 2 0 0 0 0 0 0 0 0 0 0 0 0 0 0 0 0 0 0 8 4 178 322 6 0 0 0 0 0 0 0 0 0 0 0 0 0 0 0 2 0 11 23 18 312 350 441 673 928 868 804 856 748 644 464 474 580 716 778 624 372 1379 1484 1341 1309 1311 1435 1475 1546 1568 1779 2005 2297 2452
5 5 5 5 5 4 5 6 4 3 2 5 4 2 1 1 0 0 0 0 1 0 0 0 1 0 0 0 0 0 0 0 0 0 0 0 0 0 0 0 0 0 0 0 0 0 0 0 0 0 0 0 0 0 0 1 34 288 354 404 532 667 964 902 780 728 650 596 631 538 598 688 504 504 492 1366 1303 1169 1096 1216 1320 1388 1503 1586 1681 2058 1892 1814
5 5 4 4 4 4 4 5 4 2 3 2 3 1 0 0 0 0 0 0 0 0 0 0 0 0 0 0 0 0 0 0 0 0 0 0 0 0 0 0 0 0 0 0 0 0 0 0 0 0 0 0 0 0 0 15 82 221 314 352 517 664 939 1028 813 722 614 610 695 586 370 457 517 610 965 1314 1185 1081 1104 1196 1262 1379 1434 1492 1549 1743 1983 2179
5 4 5 5 3 5 5 4 4 5 2 2 2 0 0 0 1 0 0 0 0 0 0 0 1 0 0 0 0 0 0 0 0 0 0 0 0 0 0 0 0 0 0 0 0 0 0 0 0 0 0 0 0 0 0 14 45 401 52 400 427 552 766 1031 873 731 654 627 725 345 178 503 547 752 1232 1286 1150 1033 1032 1137 1240 1294 1400 1384 1503 1708 1867 2012
4 4 4 6 9 4 5 4 4 4 2 2 1 0 0 1 1 0 0 0 0 0 0 0 1 0 0 0 0 0 0 0 0 0 0 0 0 0 0 0 0 0 0 0 0 0 0 0 0 0 0 0 0 0 65 14 0 27 63 162 418 333 374 768 798 741 770 842 848 446 42 469 557 882 1207 1265 1166 910 954 1216 1253 1254 1251 1204 1514 1706 1805 1878
4 4 5 13 10 5 4 5 3 3 2 2 0 0 2 1 0 0 0 0 0 0 0 0 0 0 0 0 0 0 0 904 0 0 0 0 0 0 0 0 0 0 0 0 0 0 0 0 0 0 0 0 4 161 16 194 0 8 17 150 310 146 310 633 826 776 654 747 822 398 327 576 537 734 1195 1307 1314 1013 1062 1348 1310 1094 1136 1054 1140 1167 1367 1512
4 4 12 11 6 4 5 4 4 6 4 2 0 1 0 0 0 0 0 0 0 0 1 0 0 0 0 0 0 0 0 0 0 0 0 0 0 0 0 0 0 0 0 0 0 0 0 0 0 0 0 0 0 0 0 7 3 0 20 308 283 6 212 538 572 736 713 840 900 674 305 652 692 754 1073 1305 1421 1334 1206 1352 1332 1212 1120 1159 1188 1336 1656 1761
3 5 11 14 13 4 5 4 6 6 4 2 2 0 0 0 0 0 0 0 0 0 0 0 0 0 0 0 0 0 0 0 0 0 0 0 0 0 0 0 0 0 0 0 0 0 0 0 0 0 0 0 0 0 0 0 0 0 0 12 324 252 254 452 522 626 719 857 921 712 518 673 778 888 1174 1288 1506 1570 1130 1319 1431 1299 1241 1230 1362 1591 1878 1705
2 6 8 9 14 5 4 4 4 3 3 2 2 0 0 0 0 0 0 0 0 0 0 0 0 0 0 0 0 0 0 0 0 0 0 0 0 0 0 0 0 0 0 0 0 0 0 0 0 0 0 0 0 0 0 0 0 0 0 23 0 285 238 413 460 500 640 792 886 719 724 821 894 942 1192 1354 1483 1586 1313 1190 1442 1414 1335 1388 1419 1842 1812 1168
3 4 8 14 12 4 3 4 2 2 2 1 0 0 0 0 0 0 0 0 0 0 0 0 0 0 0 0 0 0 0 0 0 0 0 0 0 0 0 0 0 0 0 0 0 0 0 0 0 0 0 0 0 0 0 0 0 0 0 0 0 41 259 297 360 502 573 741 798 732 621 836 1008 1033 1167 1365 1453 1489 1408 986 1217 1380 1423 1493 1608 1706 1167 1192
2 4 11 11 11 6 3 4 2 2 3 1 0 0 0 0 0 0 0 0 0 0 0 0 0 0 0 0 0 0 0 0 0 0 0 0 0 0 0 0 0 0 0 0 0 0 0 0 0 0 0 0 0 0 0 0 0 0 0 0 0 9 10 3 294 472 564 693 676 704 595 766 1018 1130 1174 1323 1385 1411 1310 907 1030 1214 1391 1517 1726 1339 1273 1542
3 5 10 10 8 7 5 4 4 2 1 1 0 0 0 0 0 0 0 0 0 0 0 0 0 0 0 0 0 0 0 0 0 0 0 0 0 0 0 0 0 0 0 0 0 0 0 0 0 0 0 0 0 0 0 0 0 0 0 0 0 0 3 0 102 384 579 687 592 599 710 796 904 1008 1159 1259 1298 1358 1197 890 910 991 1202 1458 1797 1183 1535 1921
4 4 8 7 6 6 3 3 0 0 1 2 0 0 0 0 0 0 0 0 0 0 0 0 0 0 0 0 0 0 0 0 0 0 0 0 0 0 0 0 0 0 0 0 0 0 0 0 0 0 0 0 0 0 0 0 0 0 0 0 0 0 0 0 99 407 602 561 502 684 740 707 604 757 906 1001 1082 1136 1093 926 876 936 1065 1264 1805 1389 1780 2021
4 4 2 8 6 4 4 2 0 0 0 0 0 0 0 0 0 0 0 0 0 0 0 0 0 0 0 0 0 0 0 0 0 0 0 0 0 0 0 0 0 0 0 0 0 0 0 0 0 0 0 0 0 0 0 0 0 0 0 0 0 0 8 32 10 439 540 488 574 628 677 730 740 792 766 670 810 742 835 948 998 937 993 1249 1628 1290 1894 2303
4 3 4 2 5 2 1 0 0 0 0 0 0 0 0 0 0 0 0 0 0 0 0 0 0 0 0 0 0 0 0 0 0 0 0 0 0 0 0 0 0 0 0 0 0 0 0 0 0 0 0 0 0 0 0 0 0 0 0 0 0 0 0 1 351 412 516 366 528 566 615 695 770 670 689 678 737 806 862 929 1013 1264 1438 1712 2007 2129 2240 2434
4 5 2 5 1 4 0 0 0 0 0 0 0 0 0 0 0 0 0 0 0 0 0 0 0 0 0 0 0 0 0 0 0 0 0 0 0 0 0 0 0 0 0 0 0 0 0 0 0 0 0 0 0 0 0 0 0 0 0 0 0 0 0 38 390 229 440 514 488 416 61 533 633 780 861 746 800 836 967 1108 1297 1676 2002 2093 2158 2396 2580 2574
4 4 4 4 3 1 2 0 0 0 0 0 0 0 0 0 0 0 0 0 0 0 0 0 0 0 0 0 0 0 0 0 0 0 0 0 0 0 0 0 0 0 0 0 0 0 0 0 0 0 0 0 0 0 0 0 0 0 0 0 0 0 24 78 354 2 36 196 524 413 33 331 571 750 840 726 799 870 1026 1302 1498 1808 2097 2224 2336 2638 2584 2492
3 2 6 4 2 1 0 0 0 0 0 0 0 0 0 0 0 0 0 0 0 0 0 0 0 0 0 0 0 0 0 0 0 0 0 0 0 0 0 0 0 0 0 0 0 0 0 0 0 0 0 0 0 0 0 0 0 0 0 0 0 0 30 15 46 2 0 332 437 385 242 400 519 589 871 854 771 895 1096 1416 1633 1907 2166 2415 2538 2482 2376 2329
3 3 4 6 3 2 0 0 0 0 0 0 0 0 0 0 0 0 0 0 0 0 0 0 0 0 0 0 0 0 0 0 0 0 0 0 0 0 0 0 0 0 0 0 0 0 0 0 0 0 0 0 0 0 0 0 0 0 0 0 0 0 0 1 0 0 2 321 407 364 433 401 341 664 878 929 752 777 953 1441 1616 1921 2250 2418 2411 2268 2268 2186
3 3 4 5 2 1 2 0 0 0 0 0 0 0 0 0 0 0 0 0 0 0 0 0 0 0 0 0 0 0 0 0 0 0 0 0 0 0 0 0 0 0 0 0 0 0 0 0 0 0 0 0 0 0 0 0 0 0 0 0 0 0 0 0 0 0 0 97 297 308 597 86 452 747 929 1031 840 806 820 1226 1644 1827 2174 2306 2243 2164 2195 1944
2 3 2 2 2 0 0 2 0 0 0 0 0 0 0 0 0 0 0 0 0 0 0 0 0 0 0 0 0 0 0 0 0 0 0 0 0 0 0 0 0 0 0 0 0 0 0 0 0 0 0 0 0 0 0 0 0 0 0 0 0 0 0 0 0 0 0 0 23 322 449 204 434 538 902 950 914 846 812 900 1515 1706 1950 2103 2100 2089 2042 1843
2 1 2 3 0 0 0 0 0 0 0 0 0 0 0 0 0 0 0 0 0 0 0 0 0 0 0 0 0 0 0 0 0 0 0 0 0 0 0 0 0 0 0 0 0 0 0 0 0 0 0 0 0 0 0 0 0 0 0 0 0 0 0 0 0 0 0 0 0 116 438 470 282 201 906 959 932 1004 924 862 1329 1652 1784 1968 1987 1970 1931 1836
1 1 3 0 0 0 0 0 0 0 0 0 0 0 0 0 0 0 0 0 0 0 0 0 0 0 0 0 0 0 0 0 0 0 0 0 0 0 0 0 0 0 0 0 0 0 0 0 0 0 0 0 0 0 0 0 0 0 0 0 0 0 0 0 0 0 0 122 365 171 244 393 308 721 1008 1023 1068 1011 1029 969 1134 1588 1740 1857 1905 1931 1928 2000
4 2 3 0 1 0 0 0 0 0 0 0 0 0 0 0 0 0 0 0 0 0 0 0 0 0 0 0 0 0 0 0 0 0 0 0 0 0 0 0 0 0 0 0 0 0 0 0 0 0 0 0 0 0 0 0 0 0 0 0 0 0 0 0 0 0 0 0 459 426 300 340 354 694 909 1032 1159 1105 1040 1011 944 1490 1728 1816 1867 1944 2050 2085
5 3 0 0 0 0 0 0 0 0 0 0 0 0 0 0 0 137 0 0 0 0 0 0 0 0 0 0 0 0 0 0 0 0 0 0 0 0 0 0 0 0 0 0 0 0 0 0 0 0 0 0 0 0 0 0 0 0 0 0 0 0 0 0 0 89 1 0 394 578 216 291 392 454 959 1263 1188 1090 1058 1055 1156 1405 1749 1806 1878 1966 2018 2008
1 0 1 0 2 0 0 0 0 0 0 0 0 0 0 0 0 0 0 0 0 0 0 0 0 0 0 0 0 0 0 0 0 0 0 0 0 0 0 0 0 0 0 0 0 0 0 0 0 0 0 0 0 0 0 0 0 0 0 0 0 0 0 0 0 60 114 309 357 524 616 709 744 1291 1297 1172 1223 1196 1152 1199 1288 1482 1741 1809 1879 1935 1910 1747
0 0 2 0 0 0 0 0 0 0 0 0 0 0 0 0 0 0 0 0 0 0 0 0 0 0 0 0 0 0 0 0 0 0 0 0 0 0 0 0 0 0 0 0 0 0 0 0 0 0 0 0 0 0 0 0 0 0 0 0 0 0 0 0 251 294 328 210 484 782 530 836 902 898 1080 1356 1076 1202 1258 1271 1425 1573 1690 1790 1840 1793 1635 1556
0 0 0 0 0 0 0 0 0 0 0 0 0 0 0 0 0 0 21 0 0 0 0 0 0 0 0 0 0 0 0 0 0 0 0 0 0 0 0 0 0 0 0 0 0 0 0 0 0 0 0 0 0 0 0 0 0 0 0 0 0 0 0 0 88 265 322 0 28 729 878 732 479 714 1053 1232 1249 1098 1374 1339 1504 1563 1564 1607 1683 1555 1447 1484
0 0 0 0 0 0 0 0 0 0 0 0 0 90 32 0 0 0 0 0 0 0 0 0 0 0 0 0 0 0 0 0 0 0 0 0 0 0 0 0 0 0 0 0 0 0 0 0 0 0 0 0 0 0 0 0 0 0 0 0 0 0 1 0 2 48 0 42 352 639 887 890 793 581 1008 1404 1242 1138 1250 1403 1479 1424 1372 1171 1230 1376 1337 1215
0 0 0 0 0 0 0 0 0 0 0 0 0 0 0 0 0 0 0 0 0 0 0 0 0 0 0 0 0 0 0 0 0 0 0 0 0 0 0 0 0 0 0 0 0 0 0 0 0 0 0 0 0 0 0 0 0 0 0 0 0 0 0 0 0 0 0 23 108 220 658 722 680 775 895 1296 1207 1092 1173 1210 1328 1233 1086 1078 1069 1126 1086 1096
0 0 0 0 0 0 0 0 0 0 0 0 0 0 0 0 0 0 0 0 0 0 0 0 0 0 0 0 0 0 0 0 0 0 0 0 0 0 0 0 0 0 0 0 0 0 0 0 0 0 0 0 0 0 0 0 0 0 0 0 0 0 0 0 0 0 3 248 0 258 348 176 503 829 1278 1449 1340 1298 1246 1146 1130 1144 1143 1112 1096 1042 1161 1160
0 0 0 0 0 0 0 0 0 0 0 0 0 0 0 0 0 0 0 0 0 0 0 0 0 0 0 0 0 0 0 0 0 0 0 0 0 0 0 0 0 0 0 0 0 0 0 0 0 0 0 0 0 0 0 0 0 0 0 0 0 0 0 12 14 20 52 73 244 33 26 220 691 1379 1593 1600 1476 1482 1341 1266 1220 1176 1175 1130 1068 1128 1212 1178
0 0 0 0 0 0 0 0 0 0 0 0 0 0 0 0 0 0 0 0 0 0 0 0 0 0 0 0 0 0 0 0 0 0 0 0 0 0 0 0 0 0 0 0 0 0 0 0 0 0 0 0 0 0 0 0 0 0 0 0 0 0 0 0 0 2 180 125 175 166 88 46 1389 1638 1584 1524 1519 1442 1346 1220 1193 1158 1151 1104 1104 1125 1106 1106
0 0 0 0 0 0 0 0 0 0 0 0 0 0 0 0 0 0 0 0 0 0 0 0 0 0 0 0 0 0 0 0 0 0 0 0 0 0 0 0 0 0 0 0 0 0 163 0 0 0 0 0 0 0 0 0 0 0 0 0 0 0 0 0 0 158 300 350 470 226 465 563 1586 1762 1468 1518 1518 1398 1335 1216 1154 1113 1062 1024 945 1094 986 1023
0 0 0 0 0 0 0 0 0 0 0 0 0 0 0 0 0 0 0 0 0 0 0 0 0 0 0 0 0 0 0 0 0 0 0 0 0 0 0 0 0 0 0 0 0 0 0 0 0 0 0 0 0 0 0 0 0 0 0 0 0 0 0 0 0 288 151 322 408 1 105 0 1290 1489 1455 1477 1443 1402 1378 1301 1196 1083 1010 981 1009 1035 979 916
0 0 0 0 0 0 0 0 0 0 0 0 0 0 0 0 0 0 0 0 0 0 0 0 0 0 0 0 0 0 0 0 0 0 0 0 0 0 0 0 0 0 0 0 0 0 0 0 0 0 0 0 0 0 0 5 10 0 0 0 0 0 0 38 145 20 162 265 132 132 1 446 1225 1373 1378 1271 1245 1193 1102 1026 1025 1072 1049 1036 990 934 1016 954
0 0 0 0 0 0 0 0 0 0 0 0 0 0 0 0 0 0 0 0 0 0 0 0 0 0 0 0 0 0 0 0 0 0 0 0 0 0 0 0 0 0 0 888 540 0 0 0 0 0 0 0 0 0 0 0 0 55 12 0 1 0 0 0 0 0 63 197 360 240 224 1017 1171 1408 1374 1237 1015 975 955 934 956 1030 1001 985 921 844 854 874
0 0 0 0 0 0 0 0 0 0 0 0 0 0 0 0 0 0 0 0 0 0 0 0 0 0 0 0 0 0 0 0 0 0 0 0 0 0 0 0 0 99 2170 890 24 0 0 0 0 0 0 0 0 0 0 109 0 0 16 38 0 0 0 0 0 88 44 342 390 357 132 571 814 1324 1326 1230 1112 1000 926 1033 1008 987 987 937 802 789 774 765
0 0 0 0 0 0 0 0 0 0 0 0 0 0 0 0 166 339 0 0 0 0 0 0 0 0 0 0 0 0 0 0 0 0 0 0 0 0 0 0 0 2468 962 0 0 0 0 0 0 0 0 0 0 0 0 0 0 0 0 0 5 0 0 58 2 0 221 0 2 192 560 455 803 1266 1328 1248 1138 1009 924 1058 992 969 899 850 796 743 695 666
0 0 250 116 145 0 0 102 63 85 0 0 0 0 423 574 551 420 372 0 0 0 0 0 0 0 0 0 0 0 0 0 0 0 0 0 0 0 0 0 242 723 0 0 0 0 0 0 0 0 0 0 0 0 0 8 38 201 208 111 72 99 140 290 615 760 330 316 42 479 638 602 878 1314 1278 1330 1252 1107 990 1096 1070 926 849 816 778 770 732 880
38 120 434 1 3 59 3 196 125 334 392 290 126 589 570 758 775 614 522 234 0 41 0 0 0 0 0 0 0 0 0 0 0 0 0 0 0 0 0 0 0 0 0 0 0 0 0 1 136 0 0 0 1 18 4 34 178 354 362 408 416 470 625 771 761 799 764 757 763 752 794 830 1092 1146 1306 1396 1362 1154 1081 1227 1059 876 876 774 750 766 800 1011
0 0 0 32 24 0 718 268 470 525 222 4 71 754 888 922 818 591 623 527 353 114 1 59 0 0 0 0 0 0 0 0 0 0 0 0 0 0 0 0 0 0 0 0 0 0 0 0 106 0 7 32 8 14 24 51 285 168 188 293 293 180 390 582 645 716 649 526 880 786 588 747 1126 1285 1404 1427 1371 1192 1152 1266 1134 968 948 747 760 808 980 1021
0 0 0 254 10 635 146 530 722 121 256 2 632 1054 927 666 672 683 594 330 173 174 1 0 0 6 0 0 0 0 0 0 0 0 0 0 0 0 0 0 0 0 0 0 0 0 0 0 5 0 14 7 6 0 0 0 16 108 224 365 406 454 663 780 812 924 688 858 678 382 199 554 1162 1360 1435 1392 1313 1211 1123 1285 1199 1078 1066 903 872 975 1050 1024
Wind_Speed
nan nan nan nan nan nan nan nan nan nan nan nan nan nan nan nan nan nan nan nan nan nan nan nan nan nan nan nan nan nan nan nan nan nan nan nan nan nan nan 12 21 21 18 12 nan nan nan 23 nan nan nan 27 31 31 34 36 37 36 38 40 nan nan nan 46 47 50 43 39 37 30 30 29 29 28 28 27 21 24 23 18 17 10 7 8 8 6 6 6
nan nan nan nan nan nan nan nan nan nan nan nan nan nan nan nan nan nan nan nan nan nan nan nan nan nan nan nan nan nan nan nan nan nan nan 2 7 7 12 20 22 22 15 nan nan nan nan 23 nan nan nan 27 nan 30 29 35 36 36 37 nan nan nan nan 43 44 45 43 42 38 32 29 29 31 29 28 25 28 28 23 23 21 14 11 9 8 6 7 7
nan nan nan nan nan nan nan nan nan nan nan nan nan nan nan nan nan nan nan nan nan nan nan nan nan nan nan nan nan nan nan nan nan nan nan nan 9 9 14 19 23 26 nan nan nan nan nan nan nan nan nan nan 26 28 31 31 35 38 34 nan nan nan 37 39 40 43 41 43 39 32 30 27 31 28 28 27 28 25 24 27 23 20 18 15 12 8 7 7
nan nan nan nan nan nan nan nan nan nan nan nan nan nan nan nan nan nan nan nan nan nan nan nan nan nan nan nan nan nan nan nan nan nan nan 3 8 11 14 17 22 24 nan nan nan nan nan nan nan nan nan 22 nan 26 29 31 32 34 32 nan nan 36 32 33 36 38 39 40 40 34 31 27 29 28 27 29 23 24 25 27 27 28 23 19 15 13 10 9
nan nan nan nan nan nan nan nan nan nan nan nan nan nan nan nan nan nan nan nan nan nan nan nan nan nan nan nan nan nan nan nan nan nan nan 4 6 9 13 16 19 nan nan nan nan nan nan nan nan nan nan nan nan nan 31 31 34 nan nan nan nan 33 28 31 33 35 35 38 37 35 30 30 29 24 23 23 25 25 25 25 24 23 22 21 20 18 15 15
nan nan nan nan nan nan nan nan nan nan nan nan nan nan nan nan nan nan nan nan nan nan nan nan nan nan nan nan nan nan nan nan nan nan 14 7 6 6 9 15 16 nan nan nan nan nan nan nan nan nan nan nan nan nan nan nan 32 nan nan nan nan 31 29 30 31 33 35 36 37 34 33 29 25 25 24 20 22 26 25 22 20 20 20 19 18 18 18 19
nan nan nan nan nan nan nan nan nan nan nan nan nan nan nan nan nan nan nan nan nan nan nan nan nan nan nan nan nan nan nan nan nan nan 15 11 8 5 2 7 6 nan nan nan nan nan nan nan nan nan nan nan nan nan nan nan nan nan nan nan 24 25 26 28 28 30 31 35 37 37 31 25 nan 22 24 21 23 21 20 20 19 19 18 19 19 19 20 22
nan nan nan nan nan nan nan nan nan nan nan nan nan nan nan nan nan nan nan nan nan nan nan nan nan nan nan nan nan nan nan nan nan nan 13 16 12 7 4 7 nan nan nan nan nan nan nan nan nan nan nan nan nan nan nan nan nan nan nan nan 24 20 24 23 24 25 27 29 34 31 28 29 28 29 26 23 21 21 20 20 20 20 20 20 21 20 20 21
nan nan nan nan nan nan nan nan nan nan nan nan nan nan nan nan nan nan nan nan nan nan nan nan nan nan nan nan nan nan nan nan nan nan 14 16 11 8 6 nan nan nan nan nan nan nan nan nan nan nan nan nan nan nan nan nan nan nan nan 23 20 20 22 23 20 22 25 29 30 28 28 30 29 32 25 28 24 24 22 19 21 23 23 23 23 23 22 22
nan nan nan nan nan nan nan nan nan nan nan nan nan nan nan nan nan nan nan nan nan nan nan nan nan nan nan nan nan nan nan nan nan nan nan 15 10 nan nan nan nan nan nan nan nan nan nan nan nan nan nan nan nan nan nan nan nan nan 16 18 15 19 20 22 22 21 24 27 29 31 30 28 29 30 29 28 29 28 24 22 21 22 25 24 23 23 21 18
nan nan nan nan nan nan nan nan nan nan nan nan nan nan nan nan nan nan nan nan nan nan nan nan nan nan nan nan nan nan nan nan nan nan nan nan nan nan nan nan nan nan nan nan nan nan nan nan nan nan nan nan nan nan nan nan nan 14 19 15 10 11 14 18 16 19 21 25 27 33 32 27 24 25 30 31 30 31 30 25 23 22 23 23 23 22 21 18
nan nan nan nan nan nan nan nan nan nan nan nan nan nan nan nan nan nan nan nan nan nan nan nan nan nan nan nan nan nan nan nan nan nan nan nan nan nan nan nan nan nan nan nan nan nan nan nan nan nan nan nan nan nan nan nan nan 17 15 15 14 9 13 19 19 20 17 23 28 28 25 20 21 27 28 31 30 31 31 28 25 24 23 21 21 21 20 19
nan nan nan nan nan nan nan nan nan nan nan nan nan nan nan nan nan nan nan nan nan nan nan nan nan nan nan nan nan nan nan nan nan nan nan nan nan nan nan nan nan nan nan nan nan nan nan nan nan nan nan nan nan nan nan nan nan 11 nan 14 11 9 14 22 18 16 15 20 23 21 25 25 25 27 28 30 29 29 30 29 26 24 23 20 18 18 18 18
nan nan nan nan nan nan nan nan nan nan nan nan nan nan nan nan nan nan nan nan nan nan nan nan nan nan nan nan nan nan nan nan nan nan nan nan nan nan nan nan nan nan nan nan nan nan nan nan nan nan nan nan nan nan nan nan nan nan nan 9 11 10 15 21 20 18 14 15 19 20 nan 25 26 26 28 28 27 29 32 33 29 23 22 20 17 16 16 17
nan nan nan nan nan nan nan nan nan nan nan nan nan nan nan nan nan nan nan nan nan nan nan nan nan nan nan nan nan nan nan 21 nan nan nan nan nan nan nan nan nan nan nan nan nan nan nan nan nan nan nan nan nan 5 nan 7 nan nan nan 14 11 12 14 18 17 18 15 12 14 17 20 28 28 28 27 27 24 26 30 33 32 26 22 21 18 17 18 18
nan nan nan nan nan nan nan nan nan nan nan nan nan nan nan nan nan nan nan nan nan nan nan nan nan nan nan nan nan nan nan nan nan nan nan nan nan nan nan nan nan nan nan nan nan nan nan nan nan nan nan nan nan nan nan nan nan nan nan 13 13 nan 14 15 22 20 17 13 13 16 23 24 26 27 26 27 27 27 29 32 34 28 22 21 20 20 20 18
nan nan nan nan nan nan nan nan nan nan nan nan nan nan nan nan nan nan nan nan nan nan nan nan nan nan nan nan nan nan nan nan nan nan nan nan nan nan nan nan nan nan nan nan nan nan nan nan nan nan nan nan nan nan nan nan nan nan nan nan 13 14 13 18 17 18 17 16 15 15 19 24 25 25 27 26 30 29 29 32 35 31 24 22 21 19 19 17
nan nan nan nan nan nan nan nan nan nan nan nan nan nan nan nan nan nan nan nan nan nan nan nan nan nan nan nan nan nan nan nan nan nan nan nan nan nan nan nan nan nan nan nan nan nan nan nan nan nan nan nan nan nan nan nan nan nan nan nan nan 10 15 16 19 19 17 12 14 14 15 22 23 25 24 27 30 30 29 34 38 33 25 23 22 19 18 18
nan nan nan nan nan nan nan nan nan nan nan nan nan nan nan nan nan nan nan nan nan nan nan nan nan nan nan nan nan nan nan nan nan nan nan nan nan nan nan nan nan nan nan nan nan nan nan nan nan nan nan nan nan nan nan nan nan nan nan nan nan nan 16 14 13 12 21 10 10 17 17 20 22 25 23 22 28 30 30 34 38 32 25 25 24 21 21 20
nan nan nan nan nan nan nan nan nan nan nan nan nan nan nan nan nan nan nan nan nan nan nan nan nan nan nan nan nan nan nan nan nan nan nan nan nan nan nan nan nan nan nan nan nan nan nan nan nan nan nan nan nan nan nan nan nan nan nan nan nan nan nan nan 8 11 17 8 10 16 12 15 21 23 21 21 23 27 28 32 37 33 26 26 27 24 23 21
nan nan nan nan nan nan nan nan nan nan nan nan nan nan nan nan nan nan nan nan nan nan nan nan nan nan nan nan nan nan nan nan nan nan nan nan nan nan nan nan nan nan nan nan nan nan nan nan nan nan nan nan nan nan nan nan nan nan nan nan nan nan nan nan 10 11 9 8 11 15 11 10 19 21 19 19 22 28 31 30 33 35 29 26 28 27 25 23
nan nan nan nan nan nan nan nan nan nan nan nan nan nan nan nan nan nan nan nan nan nan nan nan nan nan nan nan nan nan nan nan nan nan nan nan nan nan nan nan nan nan nan nan nan nan nan nan nan nan nan nan nan nan nan nan nan nan nan nan nan nan nan nan nan 5 5 7 9 13 12 11 15 17 17 19 23 23 28 32 33 37 30 26 27 28 26 24
nan nan nan nan nan nan nan nan nan nan nan nan nan nan nan nan nan nan nan nan nan nan nan nan nan nan nan nan nan nan nan nan nan nan nan nan nan nan nan nan nan nan nan nan nan nan nan nan nan nan nan nan nan nan nan nan nan nan nan nan nan nan nan nan nan 5 2 7 13 13 14 13 12 16 16 18 22 22 23 27 29 30 30 29 30 30 30 26
nan nan nan nan nan nan nan nan nan nan nan nan nan nan nan nan nan nan nan nan nan nan nan nan nan nan nan nan nan nan nan nan nan nan nan nan nan nan nan nan nan nan nan nan nan nan nan nan nan nan nan nan nan nan nan nan nan nan nan nan nan nan nan nan 9 6 7 6 14 16 11 13 12 15 18 18 19 21 20 25 28 28 28 27 27 27 28 30
nan nan nan nan nan nan nan nan nan nan nan nan nan nan nan nan nan nan nan nan nan nan nan nan nan nan nan nan nan nan nan nan nan nan nan nan nan nan nan nan nan nan nan nan nan nan nan nan nan nan nan nan nan nan nan nan nan nan nan nan nan nan nan nan 11 12 7 10 9 20 nan 13 13 15 20 20 20 19 21 25 27 30 29 27 28 28 28 28
nan nan nan nan nan nan nan nan nan nan nan nan nan nan nan nan nan nan nan nan nan nan nan nan nan nan nan nan nan nan nan nan nan nan nan nan nan nan nan nan nan nan nan nan nan nan nan nan nan nan nan nan nan nan nan nan nan nan nan nan nan nan nan nan 15 nan nan 18 17 15 nan 16 13 18 21 21 22 21 21 24 27 30 30 28 30 31 30 29
nan nan nan nan nan nan nan nan nan nan nan nan nan nan nan nan nan nan nan nan nan nan nan nan nan nan nan nan nan nan nan nan nan nan nan nan nan nan nan nan nan nan nan nan nan nan nan nan nan nan nan nan nan nan nan nan nan nan nan nan nan nan nan nan nan nan nan 14 14 16 18 20 16 16 20 24 25 24 24 25 27 30 29 29 30 30 29 29
nan nan nan nan nan nan nan nan nan nan nan nan nan nan nan nan nan nan nan nan nan nan nan nan nan nan nan nan nan nan nan nan nan nan nan nan nan nan nan nan nan nan nan nan nan nan nan nan nan nan nan nan nan nan nan nan nan nan nan nan nan nan nan nan nan nan nan 22 14 11 14 16 15 17 18 25 27 26 28 30 30 30 28 27 29 29 28 29
nan nan nan nan nan nan nan nan nan nan nan nan nan nan nan nan nan nan nan nan nan nan nan nan nan nan nan nan nan nan nan nan nan nan nan nan nan nan nan nan nan nan nan nan nan nan nan nan nan nan nan nan nan nan nan nan nan nan nan nan nan nan nan nan nan nan nan nan 13 10 14 nan 11 15 19 21 26 28 30 33 33 31 29 28 29 29 27 26
nan nan nan nan nan nan nan nan nan nan nan nan nan nan nan nan nan nan nan nan nan nan nan nan nan nan nan nan nan nan nan nan nan nan nan nan nan nan nan nan nan nan nan nan nan nan nan nan nan nan nan nan nan nan nan nan nan nan nan nan nan nan nan nan nan nan nan nan nan 9 11 15 12 15 23 29 28 29 32 33 33 32 30 27 29 30 27 25
nan nan nan nan nan nan nan nan nan nan nan nan nan nan nan nan nan nan nan nan nan nan nan nan nan nan nan nan nan nan nan nan nan nan nan nan nan nan nan nan nan nan nan nan nan nan nan nan nan nan nan nan nan nan nan nan nan nan nan nan nan nan nan nan nan nan nan nan nan 9 12 14 17 16 20 24 27 27 31 35 39 37 34 32 32 32 29 26
nan nan nan nan nan nan nan nan nan nan nan nan nan nan nan nan nan nan nan nan nan nan nan nan nan nan nan nan nan nan nan nan nan nan nan nan nan nan nan nan nan nan nan nan nan nan nan nan nan nan nan nan nan nan nan nan nan nan nan nan nan nan nan nan nan nan nan 11 11 13 15 17 18 20 23 22 23 26 26 31 38 37 35 35 36 35 31 28
nan nan nan nan nan nan nan nan nan nan nan nan nan nan nan nan nan nan nan nan nan nan nan nan nan nan nan nan nan nan nan nan nan nan nan nan nan nan nan nan nan nan nan nan nan nan nan nan nan nan nan nan nan nan nan nan nan nan nan nan nan nan nan nan nan nan nan nan 12 14 18 20 19 18 22 22 23 22 23 28 34 37 39 39 38 36 33 28
nan nan nan nan nan nan nan nan nan nan nan nan nan nan nan nan nan 11 nan nan nan nan nan nan nan nan nan nan nan nan nan nan nan nan nan nan nan nan nan nan nan nan nan nan nan nan nan nan nan nan nan nan nan nan nan nan nan nan nan nan nan nan nan nan nan nan nan nan 15 18 24 21 25 22 23 24 22 22 24 28 34 37 37 38 37 35 32 29
nan nan nan nan nan nan nan nan nan nan nan nan nan nan nan nan nan nan nan nan nan nan nan nan nan nan nan nan nan nan nan nan nan nan nan nan nan nan nan nan nan nan nan nan nan nan nan nan nan nan nan nan nan nan nan nan nan nan nan nan nan nan nan nan nan nan 20 22 21 21 23 23 23 23 23 23 25 27 30 32 35 37 38 38 37 34 32 29
nan nan nan nan nan nan nan nan nan nan nan nan nan nan nan nan nan nan nan nan nan nan nan nan nan nan nan nan nan nan nan nan nan nan nan nan nan nan nan nan nan nan nan nan nan nan nan nan nan nan nan nan nan nan nan nan nan nan nan nan nan nan nan nan 20 21 24 24 20 21 19 19 18 21 23 24 26 28 31 33 34 36 37 37 36 34 32 29
nan nan nan nan nan nan nan nan nan nan nan nan nan nan nan nan nan nan nan nan nan nan nan nan nan nan nan nan nan nan nan nan nan nan nan nan nan nan nan nan nan nan nan nan nan nan nan nan nan nan nan nan nan nan nan nan nan nan nan nan nan nan nan nan nan 18 23 nan nan 23 21 16 21 20 22 25 29 32 34 34 35 37 37 38 36 34 32 30
nan nan nan nan nan nan nan nan nan nan nan nan nan nan nan nan nan nan nan nan nan nan nan nan nan nan nan nan nan nan nan nan nan nan nan nan nan nan nan nan nan nan nan nan nan nan nan nan nan nan nan nan nan nan nan nan nan nan nan nan nan nan nan nan nan nan nan nan 19 18 22 20 25 21 25 28 34 35 35 35 37 39 38 38 36 32 30 29
nan nan nan nan nan nan nan nan nan nan nan nan nan nan nan nan nan nan nan nan nan nan nan nan nan nan nan nan nan nan nan nan nan nan nan nan nan nan nan nan nan nan nan nan nan nan nan nan nan nan nan nan nan nan nan nan nan nan nan nan nan nan nan nan nan nan nan nan 22 19 22 21 25 26 35 34 37 38 37 37 38 39 40 39 35 31 30 30
nan nan nan nan nan nan nan nan nan nan nan nan nan nan nan nan nan nan nan nan nan nan nan nan nan nan nan nan nan nan nan nan nan nan nan nan nan nan nan nan nan nan nan nan nan nan nan nan nan nan nan nan nan nan nan nan nan nan nan nan nan nan nan nan nan nan nan 25 nan 24 21 20 22 27 33 35 37 40 40 39 39 38 38 37 33 29 29 29
nan nan nan nan nan nan nan nan nan nan nan nan nan nan nan nan nan nan nan nan nan nan nan nan nan nan nan nan nan nan nan nan nan nan nan nan nan nan nan nan nan nan nan nan nan nan nan nan nan nan nan nan nan nan nan nan nan nan nan nan nan nan nan nan nan nan nan nan 25 nan nan 22 22 25 28 35 36 39 36 39 40 39 38 34 29 27 28 29
nan nan nan nan nan nan nan nan nan nan nan nan nan nan nan nan nan nan nan nan nan nan nan nan nan nan nan nan nan nan nan nan nan nan nan nan nan nan nan nan nan nan nan nan nan nan nan nan nan nan nan nan nan nan nan nan nan nan nan nan nan nan nan nan nan nan 22 23 26 27 nan nan 26 28 32 34 34 35 36 39 40 39 37 31 27 28 27 26
nan nan nan nan nan nan nan nan nan nan nan nan nan nan nan nan nan nan nan nan nan nan nan nan nan nan nan nan nan nan nan nan nan nan nan nan nan nan nan nan nan nan nan nan nan nan 20 nan nan nan nan nan nan nan nan nan nan nan nan nan nan nan nan nan nan 23 27 23 24 25 27 28 30 32 33 33 34 35 35 38 41 38 34 29 30 29 28 27
nan nan nan nan nan nan nan nan nan nan nan nan nan nan nan nan nan nan nan nan nan nan nan nan nan nan nan nan nan nan nan nan nan nan nan nan nan nan nan nan nan nan nan nan nan nan nan nan nan nan nan nan nan nan nan nan nan nan nan nan nan nan nan nan nan 22 28 22 29 nan 28 nan 31 32 33 35 36 38 38 38 40 37 32 31 30 28 26 26
nan nan nan nan nan nan nan nan nan nan nan nan nan nan nan nan nan nan nan nan nan nan nan nan nan nan nan nan nan nan nan nan nan nan nan nan nan nan nan nan nan nan nan nan nan nan nan nan nan nan nan nan nan nan nan nan nan nan nan nan nan nan nan nan 24 nan 27 26 31 31 nan 30 30 32 34 37 39 41 40 40 38 34 33 32 29 27 26 27
nan nan nan nan nan nan nan nan nan nan nan nan nan nan nan nan nan nan nan nan nan nan nan nan nan nan nan nan nan nan nan nan nan nan nan nan nan nan nan nan nan nan nan 17 20 nan nan nan nan nan nan nan nan nan nan nan nan nan nan nan nan nan nan nan nan nan nan 29 31 29 33 34 33 35 36 40 42 44 43 41 37 34 31 28 26 26 27 28
nan nan nan nan nan nan nan nan nan nan nan nan nan nan nan nan nan nan nan nan nan nan nan nan nan nan nan nan nan nan nan nan nan nan nan nan nan nan nan nan nan nan 19 19 nan nan nan nan nan nan nan nan nan nan nan 19 nan nan nan nan nan nan nan nan nan nan nan 41 29 30 35 37 33 39 39 42 43 43 40 38 36 33 31 29 27 27 29 29
nan nan nan nan nan nan nan nan nan nan nan nan nan nan nan nan 40 37 nan nan nan nan nan nan nan nan nan nan nan nan nan nan nan nan nan nan nan nan nan nan nan 14 15 nan nan nan nan nan nan nan nan nan nan nan nan nan nan nan nan nan nan nan nan nan nan nan 33 nan nan 33 39 37 34 40 43 44 43 40 38 35 33 32 30 28 28 29 30 32
nan nan 20 20 20 nan nan 21 nan nan nan nan nan nan 40 39 38 34 33 nan nan nan nan nan nan nan nan nan nan nan nan nan nan nan nan nan nan nan nan nan 16 17 nan nan nan nan nan nan nan nan nan nan nan nan nan nan nan 30 29 30 nan nan 34 37 36 32 35 35 nan 38 39 36 37 40 44 42 39 37 35 32 31 31 30 29 30 30 32 33
nan 20 19 nan nan nan nan 23 24 27 24 22 31 38 39 39 38 37 34 30 nan nan nan nan nan nan nan nan nan nan nan nan nan nan nan nan nan nan nan nan nan nan nan nan nan nan nan nan 15 nan nan nan nan nan nan nan 36 36 32 33 34 35 37 34 36 34 38 39 38 39 39 37 38 39 40 39 39 35 33 33 32 30 30 30 31 32 33 35
nan nan nan nan nan nan 23 25 26 27 26 nan nan 40 42 39 36 36 33 27 21 23 nan nan nan nan nan nan nan nan nan nan nan nan nan nan nan nan nan nan nan nan nan nan nan nan nan nan 17 nan nan nan nan nan nan nan 38 37 33 32 32 32 35 32 34 33 35 38 37 40 39 37 38 40 40 38 36 34 33 32 31 30 30 32 33 34 35 37
nan nan nan 22 nan 23 24 26 28 28 27 nan 29 38 41 38 36 40 36 30 25 21 nan nan nan nan nan nan nan nan nan nan nan nan nan nan nan nan nan nan nan nan nan nan nan nan nan nan nan nan nan nan nan nan nan nan nan 31 27 27 27 29 31 34 33 35 35 41 45 42 39 37 40 39 38 30 31 30 31 31 30 30 31 34 35 37 37 39
Wind_Direction
nan nan nan nan nan nan nan nan nan nan nan nan nan nan nan nan nan nan nan nan nan nan nan nan nan nan nan nan nan nan nan nan nan nan nan nan nan nan nan 17 31 42 53 78 nan nan nan 91 nan nan nan 72 74 70 65 63 59 54 52 49 nan nan nan 36 34 32 36 33 33 31 35 26 36 41 42 46 48 45 48 49 57 57 66 59 61 46 18 13
nan nan nan nan nan nan nan nan nan nan nan nan nan nan nan nan nan nan nan nan nan nan nan nan nan nan nan nan nan nan nan nan nan nan nan 132 348 20 359 6 27 39 58 nan nan nan nan 82 nan nan nan 72 nan 71 56 64 56 53 51 nan nan nan nan 31 34 31 31 34 29 30 35 31 37 36 45 45 53 51 45 53 48 37 40 42 53 44 21 15
nan nan nan nan nan nan nan nan nan nan nan nan nan nan nan nan nan nan nan nan nan nan nan nan nan nan nan nan nan nan nan nan nan nan nan nan 347 354 359 13 26 37 nan nan nan nan nan nan nan nan nan nan 72 69 62 65 53 56 52 nan nan nan 42 37 32 30 31 22 23 25 37 34 39 39 42 44 48 52 43 43 53 43 36 37 40 34 26 14
nan nan nan nan nan nan nan nan nan nan nan nan nan nan nan nan nan nan nan nan nan nan nan nan nan nan nan nan nan nan nan nan nan nan nan 321 336 347 2 17 31 53 nan nan nan nan nan nan nan nan nan 75 nan 70 64 62 57 59 54 nan nan 49 41 40 35 29 24 18 21 23 31 35 41 39 38 38 44 54 55 57 49 40 36 34 32 23 21 9
nan nan nan nan nan nan nan nan nan nan nan nan nan nan nan nan nan nan nan nan nan nan nan nan nan nan nan nan nan nan nan nan nan nan nan 303 330 349 1 18 33 nan nan nan nan nan nan nan nan nan nan nan nan nan 69 56 57 nan nan nan nan 52 43 40 36 28 21 17 16 21 26 35 39 39 37 37 37 47 47 52 52 43 42 34 30 32 31 20
nan nan nan nan nan nan nan nan nan nan nan nan nan nan nan nan nan nan nan nan nan nan nan nan nan nan nan nan nan nan nan nan nan nan 223 256 294 335 8 19 33 nan nan nan nan nan nan nan nan nan nan nan nan nan nan nan 51 nan nan nan nan 53 37 40 35 30 18 21 19 25 28 32 35 33 36 31 39 47 51 41 43 51 49 43 40 39 39 31
nan nan nan nan nan nan nan nan nan nan nan nan nan nan nan nan nan nan nan nan nan nan nan nan nan nan nan nan nan nan nan nan nan nan 227 249 256 255 5 33 81 nan nan nan nan nan nan nan nan nan nan nan nan nan nan nan nan nan nan nan 60 49 37 37 34 32 26 15 22 26 25 24 nan 29 36 32 38 41 41 38 37 44 41 35 30 38 35 32
nan nan nan nan nan nan nan nan nan nan nan nan nan nan nan nan nan nan nan nan nan nan nan nan nan nan nan nan nan nan nan nan nan nan 213 240 242 248 237 145 nan nan nan nan nan nan nan nan nan nan nan nan nan nan nan nan nan nan nan nan 54 50 50 36 33 27 22 24 21 22 25 30 29 29 31 37 33 32 31 32 36 37 32 31 30 32 31 30
nan nan nan nan nan nan nan nan nan nan nan nan nan nan nan nan nan nan nan nan nan nan nan nan nan nan nan nan nan nan nan nan nan nan 205 235 232 233 247 nan nan nan nan nan nan nan nan nan nan nan nan nan nan nan nan nan nan nan nan 54 54 49 47 36 33 32 24 27 17 16 24 28 29 25 26 30 23 24 23 22 31 34 30 30 32 34 30 28
nan nan nan nan nan nan nan nan nan nan nan nan nan nan nan nan nan nan nan nan nan nan nan nan nan nan nan nan nan nan nan nan nan nan nan 233 222 nan nan nan nan nan nan nan nan nan nan nan nan nan nan nan nan nan nan nan nan nan 38 43 37 44 40 50 30 36 36 25 28 14 22 26 35 24 29 30 24 21 17 20 29 29 31 33 34 34 33 27
nan nan nan nan nan nan nan nan nan nan nan nan nan nan nan nan nan nan nan nan nan nan nan nan nan nan nan nan nan nan nan nan nan nan nan nan nan nan nan nan nan nan nan nan nan nan nan nan nan nan nan nan nan nan nan nan nan 43 26 31 40 39 53 49 42 34 33 26 24 8 19 25 32 20 24 26 25 18 13 22 29 32 33 34 33 33 30 10
nan nan nan nan nan nan nan nan nan nan nan nan nan nan nan nan nan nan nan nan nan nan nan nan nan nan nan nan nan nan nan nan nan nan nan nan nan nan nan nan nan nan nan nan nan nan nan nan nan nan nan nan nan nan nan nan nan 43 36 35 38 41 51 57 40 41 33 26 21 24 6 20 30 21 28 25 22 15 16 21 29 33 35 36 34 32 29 27
nan nan nan nan nan nan nan nan nan nan nan nan nan nan nan nan nan nan nan nan nan nan nan nan nan nan nan nan nan nan nan nan nan nan nan nan nan nan nan nan nan nan nan nan nan nan nan nan nan nan nan nan nan nan nan nan nan 49 nan 35 33 50 58 56 57 47 36 27 18 29 20 29 27 24 28 30 23 20 19 22 25 34 38 39 38 32 31 26
nan nan nan nan nan nan nan nan nan nan nan nan nan nan nan nan nan nan nan nan nan nan nan nan nan nan nan nan nan nan nan nan nan nan nan nan nan nan nan nan nan nan nan nan nan nan nan nan nan nan nan nan nan nan nan nan nan nan nan 42 33 29 55 57 50 44 31 26 16 25 nan 19 23 24 29 32 26 21 21 21 22 27 35 39 39 36 31 28
nan nan nan nan nan nan nan nan nan nan nan nan nan nan nan nan nan nan nan nan nan nan nan nan nan nan nan nan nan nan nan 197 nan nan nan nan nan nan nan nan nan nan nan nan nan nan nan nan nan nan nan nan nan 137 nan 113 nan nan nan 51 39 32 55 57 46 31 21 24 16 19 11 18 19 19 25 23 18 15 15 19 20 21 26 28 31 31 29 26
nan nan nan nan nan nan nan nan nan nan nan nan nan nan nan nan nan nan nan nan nan nan nan nan nan nan nan nan nan nan nan nan nan nan nan nan nan nan nan nan nan nan nan nan nan nan nan nan nan nan nan nan nan nan nan nan nan nan nan 51 36 nan 53 44 43 26 15 3 14 18 21 19 16 20 13 13 7 8 11 17 19 21 21 20 21 23 24 21
nan nan nan nan nan nan nan nan nan nan nan nan nan nan nan nan nan nan nan nan nan nan nan nan nan nan nan nan nan nan nan nan nan nan nan nan nan nan nan nan nan nan nan nan nan nan nan nan nan nan nan nan nan nan nan nan nan nan nan nan 32 26 39 35 41 24 11 355 15 20 19 26 21 19 2 1 0 5 11 16 17 18 19 16 15 16 19 18
nan nan nan nan nan nan nan nan nan nan nan nan nan nan nan nan nan nan nan nan nan nan nan nan nan nan nan nan nan nan nan nan nan nan nan nan nan nan nan nan nan nan nan nan nan nan nan nan nan nan nan nan nan nan nan nan nan nan nan nan nan 31 26 28 10 23 348 7 355 16 15 25 24 20 4 359 357 1 11 16 15 15 15 12 7 8 11 11
nan nan nan nan nan nan nan nan nan nan nan nan nan nan nan nan nan nan nan nan nan nan nan nan nan nan nan nan nan nan nan nan nan nan nan nan nan nan nan nan nan nan nan nan nan nan nan nan nan nan nan nan nan nan nan nan nan nan nan nan nan nan 40 28 20 15 345 347 358 18 16 22 22 19 7 360 356 360 10 13 13 15 12 6 2 2 4 3
nan nan nan nan nan nan nan nan nan nan nan nan nan nan nan nan nan nan nan nan nan nan nan nan nan nan nan nan nan nan nan nan nan nan nan nan nan nan nan nan nan nan nan nan nan nan nan nan nan nan nan nan nan nan nan nan nan nan nan nan nan nan nan nan 359 2 337 329 43 32 11 13 22 22 13 3 355 359 6 10 12 14 9 1 357 360 1 359
nan nan nan nan nan nan nan nan nan nan nan nan nan nan nan nan nan nan nan nan nan nan nan nan nan nan nan nan nan nan nan nan nan nan nan nan nan nan nan nan nan nan nan nan nan nan nan nan nan nan nan nan nan nan nan nan nan nan nan nan nan nan nan nan 8 1 359 342 45 32 360 13 18 14 9 1 353 3 5 8 12 9 6 360 357 359 358 360
nan nan nan nan nan nan nan nan nan nan nan nan nan nan nan nan nan nan nan nan nan nan nan nan nan nan nan nan nan nan nan nan nan nan nan nan nan nan nan nan nan nan nan nan nan nan nan nan nan nan nan nan nan nan nan nan nan nan nan nan nan nan nan nan nan 358 17 312 33 29 360 15 10 4 360 354 359 0 3 3 4 1 1 1 359 356 355 356
nan nan nan nan nan nan nan nan nan nan nan nan nan nan nan nan nan nan nan nan nan nan nan nan nan nan nan nan nan nan nan nan nan nan nan nan nan nan nan nan nan nan nan nan nan nan nan nan nan nan nan nan nan nan nan nan nan nan nan nan nan nan nan nan nan 10 9 349 360 6 339 2 4 356 341 344 348 356 358 355 355 1 358 360 358 353 350 354
nan nan nan nan nan nan nan nan nan nan nan nan nan nan nan nan nan nan nan nan nan nan nan nan nan nan nan nan nan nan nan nan nan nan nan nan nan nan nan nan nan nan nan nan nan nan nan nan nan nan nan nan nan nan nan nan nan nan nan nan nan nan nan nan 15 338 330 303 323 320 323 351 350 339 335 338 347 343 352 349 353 356 353 354 349 345 347 352
nan nan nan nan nan nan nan nan nan nan nan nan nan nan nan nan nan nan nan nan nan nan nan nan nan nan nan nan nan nan nan nan nan nan nan nan nan nan nan nan nan nan nan nan nan nan nan nan nan nan nan nan nan nan nan nan nan nan nan nan nan nan nan nan 309 308 291 325 348 325 nan 345 347 334 334 340 339 343 352 344 355 354 350 350 349 350 347 346
nan nan nan nan nan nan nan nan nan nan nan nan nan nan nan nan nan nan nan nan nan nan nan nan nan nan nan nan nan nan nan nan nan nan nan nan nan nan nan nan nan nan nan nan nan nan nan nan nan nan nan nan nan nan nan nan nan nan nan nan nan nan nan nan 310 nan nan 330 347 320 nan 331 323 323 325 329 329 337 344 341 349 350 349 349 352 355 351 343
nan nan nan nan nan nan nan nan nan nan nan nan nan nan nan nan nan nan nan nan nan nan nan nan nan nan nan nan nan nan nan nan nan nan nan nan nan nan nan nan nan nan nan nan nan nan nan nan nan nan nan nan nan nan nan nan nan nan nan nan nan nan nan nan nan nan nan 307 300 300 312 320 322 326 326 328 325 336 336 338 342 347 347 346 351 353 348 339
nan nan nan nan nan nan nan nan nan nan nan nan nan nan nan nan nan nan nan nan nan nan nan nan nan nan nan nan nan nan nan nan nan nan nan nan nan nan nan nan nan nan nan nan nan nan nan nan nan nan nan nan nan nan nan nan nan nan nan nan nan nan nan nan nan nan nan 299 308 307 306 311 328 328 325 321 327 339 342 340 341 342 344 343 345 347 342 336
nan nan nan nan nan nan nan nan nan nan nan nan nan nan nan nan nan nan nan nan nan nan nan nan nan nan nan nan nan nan nan nan nan nan nan nan nan nan nan nan nan nan nan nan nan nan nan nan nan nan nan nan nan nan nan nan nan nan nan nan nan nan nan nan nan nan nan nan 319 318 303 nan 334 330 320 319 328 343 343 341 340 341 342 339 341 345 340 334
nan nan nan nan nan nan nan nan nan nan nan nan nan nan nan nan nan nan nan nan nan nan nan nan nan nan nan nan nan nan nan nan nan nan nan nan nan nan nan nan nan nan nan nan nan nan nan nan nan nan nan nan nan nan nan nan nan nan nan nan nan nan nan nan nan nan nan nan nan 338 315 314 327 333 333 325 339 339 336 334 336 335 335 333 336 343 342 333
nan nan nan nan nan nan nan nan nan nan nan nan nan nan nan nan nan nan nan nan nan nan nan nan nan nan nan nan nan nan nan nan nan nan nan nan nan nan nan nan nan nan nan nan nan nan nan nan nan nan nan nan nan nan nan nan nan nan nan nan nan nan nan nan nan nan nan nan nan 324 325 318 330 327 325 333 329 335 337 338 339 338 337 335 334 339 338 332
nan nan nan nan nan nan nan nan nan nan nan nan nan nan nan nan nan nan nan nan nan nan nan nan nan nan nan nan nan nan nan nan nan nan nan nan nan nan nan nan nan nan nan nan nan nan nan nan nan nan nan nan nan nan nan nan nan nan nan nan nan nan nan nan nan nan nan 302 308 309 312 310 332 327 326 328 330 335 340 340 341 338 335 333 331 333 334 330
nan nan nan nan nan nan nan nan nan nan nan nan nan nan nan nan nan nan nan nan nan nan nan nan nan nan nan nan nan nan nan nan nan nan nan nan nan nan nan nan nan nan nan nan nan nan nan nan nan nan nan nan nan nan nan nan nan nan nan nan nan nan nan nan nan nan nan nan 320 303 305 313 316 319 321 326 331 333 335 343 340 334 331 330 329 331 332 329
nan nan nan nan nan nan nan nan nan nan nan nan nan nan nan nan nan 202 nan nan nan nan nan nan nan nan nan nan nan nan nan nan nan nan nan nan nan nan nan nan nan nan nan nan nan nan nan nan nan nan nan nan nan nan nan nan nan nan nan nan nan nan nan nan nan nan nan nan 305 298 302 312 308 315 320 326 327 323 319 318 318 317 320 324 327 328 329 330
nan nan nan nan nan nan nan nan nan nan nan nan nan nan nan nan nan nan nan nan nan nan nan nan nan nan nan nan nan nan nan nan nan nan nan nan nan nan nan nan nan nan nan nan nan nan nan nan nan nan nan nan nan nan nan nan nan nan nan nan nan nan nan nan nan nan 287 288 288 290 301 303 309 318 322 321 320 315 314 313 314 315 320 324 326 329 331 332
nan nan nan nan nan nan nan nan nan nan nan nan nan nan nan nan nan nan nan nan nan nan nan nan nan nan nan nan nan nan nan nan nan nan nan nan nan nan nan nan nan nan nan nan nan nan nan nan nan nan nan nan nan nan nan nan nan nan nan nan nan nan nan nan 257 263 274 273 291 299 295 305 311 315 321 317 317 320 318 315 316 319 322 325 327 329 331 333
nan nan nan nan nan nan nan nan nan nan nan nan nan nan nan nan nan nan nan nan nan nan nan nan nan nan nan nan nan nan nan nan nan nan nan nan nan nan nan nan nan nan nan nan nan nan nan nan nan nan nan nan nan nan nan nan nan nan nan nan nan nan nan nan nan 259 267 nan nan 303 309 311 308 323 315 317 320 326 321 317 318 320 324 326 326 328 330 332
nan nan nan nan nan nan nan nan nan nan nan nan nan nan nan nan nan nan nan nan nan nan nan nan nan nan nan nan nan nan nan nan nan nan nan nan nan nan nan nan nan nan nan nan nan nan nan nan nan nan nan nan nan nan nan nan nan nan nan nan nan nan nan nan nan nan nan nan 311 308 313 318 322 324 318 325 325 327 324 318 318 322 325 326 327 327 327 323
nan nan nan nan nan nan nan nan nan nan nan nan nan nan nan nan nan nan nan nan nan nan nan nan nan nan nan nan nan nan nan nan nan nan nan nan nan nan nan nan nan nan nan nan nan nan nan nan nan nan nan nan nan nan nan nan nan nan nan nan nan nan nan nan nan nan nan nan 308 316 308 321 325 324 327 326 328 326 322 320 320 322 325 327 328 326 323 321
nan nan nan nan nan nan nan nan nan nan nan nan nan nan nan nan nan nan nan nan nan nan nan nan nan nan nan nan nan nan nan nan nan nan nan nan nan nan nan nan nan nan nan nan nan nan nan nan nan nan nan nan nan nan nan nan nan nan nan nan nan nan nan nan nan nan nan 318 nan 316 316 328 326 324 322 324 325 325 324 322 318 320 324 326 327 323 320 318
nan nan nan nan nan nan nan nan nan nan nan nan nan nan nan nan nan nan nan nan nan nan nan nan nan nan nan nan nan nan nan nan nan nan nan nan nan nan nan nan nan nan nan nan nan nan nan nan nan nan nan nan nan nan nan nan nan nan nan nan nan nan nan nan nan nan nan nan 317 nan nan 327 319 312 314 315 319 320 319 316 318 321 323 325 323 323 319 315
nan nan nan nan nan nan nan nan nan nan nan nan nan nan nan nan nan nan nan nan nan nan nan nan nan nan nan nan nan nan nan nan nan nan nan nan nan nan nan nan nan nan nan nan nan nan nan nan nan nan nan nan nan nan nan nan nan nan nan nan nan nan nan nan nan nan 291 300 300 307 nan nan 311 307 307 309 310 311 313 314 317 320 322 321 322 319 313 309
nan nan nan nan nan nan nan nan nan nan nan nan nan nan nan nan nan nan nan nan nan nan nan nan nan nan nan nan nan nan nan nan nan nan nan nan nan nan nan nan nan nan nan nan nan nan 195 nan nan nan nan nan nan nan nan nan nan nan nan nan nan nan nan nan nan 303 294 295 293 297 303 309 310 308 307 307 307 306 309 314 317 317 318 318 316 313 309 304
nan nan nan nan nan nan nan nan nan nan nan nan nan nan nan nan nan nan nan nan nan nan nan nan nan nan nan nan nan nan nan nan nan nan nan nan nan nan nan nan nan nan nan nan nan nan nan nan nan nan nan nan nan nan nan nan nan nan nan nan nan nan nan nan nan 275 279 297 297 nan 305 nan 314 311 311 312 312 311 312 314 317 316 315 316 315 310 305 302
nan nan nan nan nan nan nan nan nan nan nan nan nan nan nan nan nan nan nan nan nan nan nan nan nan nan nan nan nan nan nan nan nan nan nan nan nan nan nan nan nan nan nan nan nan nan nan nan nan nan nan nan nan nan nan nan nan nan nan nan nan nan nan nan 269 nan 280 289 290 296 nan 313 314 313 312 313 313 311 312 313 314 315 315 316 313 308 304 304
nan nan nan nan nan nan nan nan nan nan nan nan nan nan nan nan nan nan nan nan nan nan nan nan nan nan nan nan nan nan nan nan nan nan nan nan nan nan nan nan nan nan nan 209 211 nan nan nan nan nan nan nan nan nan nan nan nan nan nan nan nan nan nan nan nan nan nan 295 299 307 306 310 315 315 314 313 314 313 313 313 313 313 313 310 308 305 304 304
nan nan nan nan nan nan nan nan nan nan nan nan nan nan nan nan nan nan nan nan nan nan nan nan nan nan nan nan nan nan nan nan nan nan nan nan nan nan nan nan nan nan 204 208 nan nan nan nan nan nan nan nan nan nan nan 250 nan nan nan nan nan nan nan nan nan nan nan 290 296 302 308 308 319 317 316 315 315 315 315 314 313 312 312 312 308 305 302 301
nan nan nan nan nan nan nan nan nan nan nan nan nan nan nan nan 196 194 nan nan nan nan nan nan nan nan nan nan nan nan nan nan nan nan nan nan nan nan nan nan nan 172 207 nan nan nan nan nan nan nan nan nan nan nan nan nan nan nan nan nan nan nan nan nan nan nan 286 nan nan 303 307 308 310 315 315 318 319 317 315 313 312 311 307 305 304 304 305 306
nan nan 212 208 207 nan nan 201 nan nan nan nan nan nan 198 199 196 197 197 nan nan nan nan nan nan nan nan nan nan nan nan nan nan nan nan nan nan nan nan nan 180 185 nan nan nan nan nan nan nan nan nan nan nan nan nan nan nan 256 257 263 nan nan 278 282 283 284 288 293 nan 303 304 305 307 309 316 316 311 308 309 307 306 307 308 307 306 307 308 307
nan 213 211 nan nan nan nan 200 199 202 197 196 198 194 203 202 197 196 198 198 nan nan nan nan nan nan nan nan nan nan nan nan nan nan nan nan nan nan nan nan nan nan nan nan nan nan nan nan 250 nan nan nan nan nan nan nan 261 262 259 266 273 280 278 281 288 292 289 287 289 296 298 301 304 308 306 304 303 303 303 307 310 308 308 309 309 310 309 307
nan nan nan nan nan nan 201 200 200 200 200 nan nan 196 203 203 201 202 195 199 190 186 nan nan nan nan nan nan nan nan nan nan nan nan nan nan nan nan nan nan nan nan nan nan nan nan nan nan 255 nan nan nan nan nan nan nan 261 266 265 265 267 275 283 287 288 292 293 297 295 294 298 305 306 303 302 303 304 308 311 310 309 309 311 312 313 312 310 309
nan nan nan 213 nan 201 200 200 200 201 197 nan 202 201 205 199 203 203 197 194 193 180 nan nan nan nan nan nan nan nan nan nan nan nan nan nan nan nan nan nan nan nan nan nan nan nan nan nan nan nan nan nan nan nan nan nan nan 259 268 273 276 279 283 285 285 286 291 296 295 299 304 307 309 308 303 304 307 309 310 312 309 309 314 315 315 313 310 309